Regional Weather Roundup
Issued by NWS

Home | Current Version | Previous Version | Text Only | Print | Product List | Glossary Off
Versions: 1 2 3 4 5 6 7 8 9 10 11 12 13 14 15 16 17 18 19 20 21 22 23 24 25 26 27 28 29 30 31 32 33 34 35 36 37 38 39 40 41 42 43 44 45 46 47 48 49 50

518
ASUS45 KSLC 211710
RWRUT

UTAH REGIONAL WEATHER ROUNDUP
NATIONAL WEATHER SERVICE SALT LAKE CITY UT
1000 AM MST SAT JAN 21 2017

UTZ001>011-023>025-211800-

NORTHERN UTAH

CITY           SKY/WX    TMP DP  RH WIND       PRES   REMARKS
BRIGHAM CITY     N/A     32  30  93 CALM      29.46R VSB 3/4
HILL AFB       HVY SNOW  30  29  96 CALM      29.45R VSB 1/4
LOGAN          LGT SNOW  27  27 100 SW3       29.45R VSB 3/4
OGDEN          SNOW      31  31 100 S3        29.45R VSB 1/4
SALT LAKE CITY SNOW      31  30  96 NW9       29.47R VSB 1/2 WCI  23
TOOELE VALLEY  CLOUDY    32  32 100 SE5       29.49R WCI  27
WENDOVER       PTSUNNY   34  23  64 NW10      29.50R WCI  26
HEBER CITY     SNOW      28  27  93 N3        29.39R VSB 1/2
WEST JORDAN    CLOUDY    32  32 100 NW8       29.46R WCI  25

$$

UTZ011>015-024>027-211800-

CENTRAL/NORTHEAST UTAH

CITY           SKY/WX    TMP DP  RH WIND       PRES   REMARKS
PROVO AIRPORT  LGT RAIN  34  30  86 NW13      29.46R WCI  25
MOAB/CANYONLAN LGT SNOW  34  34 100 S3        29.38R FOG
DELTA          CLOUDY    30  28  93 SW3       29.50R
PRICE          LGT SNOW  31  31 100 CALM      29.37R FOG
RICHFIELD      CLOUDY    32  32 100 SW9       29.51R FOG     WCI  24
ROOSEVELT      CLOUDY    27  21  80 CALM      29.43R FOG
VERNAL         LGT SNOW  22  19  89 E3        29.41R FOG

$$

UTZ013>016-019>022-027-211800-

SOUTHERN UTAH

CITY           SKY/WX    TMP DP  RH WIND       PRES   REMARKS
BRYCE CANYON   LGT SNOW  25  21  85 W18       29.45R VSB 3/4 WCI  11
CEDAR CITY     CLOUDY    31  26  82 SW6       29.53R WCI  25
MILFORD        CLOUDY    31  28  89 S12       29.51R WCI  22
ST GEORGE      CLOUDY    43  32  65 W7        29.62R
HANKSVILLE     CLOUDY    36  32  87 MISG      29.42R
KANAB          CLOUDY    34  32  93 S9        29.58R WCI  26
BLANDING       CLOUDY    31  30  96 SW12      29.47R WCI  22

$$

REGIONAL REPORTS     COLORADO/ARIZONA

CITY           SKY/WX    TMP DP  RH WIND       PRES   REMARKS
CRAIG, CO      CLOUDY    22  16  78 SW7       29.37R WCI  13
GRAND JUNCTION LGT SNOW  32  32 100 E7        29.38R VSB 3/4 WCI  26
RIFLE, CO      FLURRIES  29  26  89 W5        29.38R WCI  24
MONTROSE, CO   CLOUDY    31  26  82 NW7       29.39R WCI  24
CORTEZ, CO     SNOW      31  31 100 SW9       29.41R VSB 1/2 WCI  23
COLORADO CITY  CLOUDY    36  32  87 W8G17     29.59R WCI  29
PAGE, AZ       CLOUDY    40  25  55 SW5       29.48R
GRAND CANYON   LGT SNOW  25  24  96 SW12G22   29.56R FOG     WCI  14
KINGMAN, AZ    MOSUNNY   41  29  62 SW22      29.68R
FLAGSTAFF, AZ  CLOUDY    26  21  81 W13G25    29.57R WCI  15

$$

REGIONAL REPORTS    NEVADA/IDAHO/WYOMING

CITY           SKY/WX    TMP DP  RH WIND       PRES   REMARKS
LAS VEGAS, NV  MOSUNNY   48  30  49 S8        29.65R
ELY, NY        CLOUDY    24  18  77 CALM      29.55R
ELKO, NV       CLOUDY    27  24  89 W6        29.53R WCI  20
POCATELLO, ID  LGT SNOW  28  26  92 SW9       29.46R WCI  19
BURLEY, ID     CLOUDY    33  27  78 W7        29.46R WCI  27
FORT BRIDGER,  LGT SNOW  17  17 100 W5        29.41R VSB 1   WCI  10
EVANSTON, WY   LGT SNOW  17  14  88 SW3       29.39R VSB 1
ROCK SPRINGS,  FOG       15  12  88 E3        29.38R VSB 1/4

$$




USA.gov is the U.S. government's official web portal to all federal, state and local government web resources and services.